This is the latest recevied weather packets stored in our database for station/object JG6YPS-13. If no packets are shown the sender has not sent any weather packets the latest 10 day(s).
| Time | Temp. | Humidity | Pressure | Rain* | Wind** | Luminosity | Snow |
|---|---|---|---|---|---|---|---|
| 1777715441 | 20.56° C | 62% | 1011.9 hPa | 0 mm | - | - | - |
| 1777714841 | 21.11° C | 62% | 1011.7 hPa | 0 mm | - | - | - |
| 1777714241 | 21.67° C | 64% | 1011.6 hPa | 0 mm | - | - | - |
| 1777713641 | 22.22° C | 62% | 1011.5 hPa | 0 mm | - | - | - |
| 1777713041 | 23.33° C | 59% | 1011.4 hPa | 0 mm | - | - | - |
| 1777712441 | 23.89° C | 55% | 1011.4 hPa | 0 mm | - | - | - |
| 1777711842 | 24.44° C | 53% | 1011.4 hPa | 0 mm | - | - | - |
| 1777711242 | 24.44° C | 50% | 1011.3 hPa | 0 mm | - | - | - |
| 1777710642 | 25° C | 52% | 1011.3 hPa | 0 mm | - | - | - |
| 1777710042 | 25° C | 51% | 1011.3 hPa | 0 mm | - | - | - |
| 1777709442 | 25.56° C | 52% | 1011.3 hPa | 0 mm | - | - | - |
| 1777708842 | 25° C | 52% | 1011.4 hPa | 0 mm | - | - | - |
| 1777708242 | 25.56° C | 51% | 1011.4 hPa | 0 mm | - | - | - |
| 1777707641 | 25.56° C | 51% | 1011.5 hPa | 0 mm | - | - | - |
| 1777707041 | 25.56° C | 50% | 1011.5 hPa | 0 mm | - | - | - |
| 1777706441 | 25.56° C | 49% | 1011.6 hPa | 0 mm | - | - | - |
| 1777705841 | 26.67° C | 49% | 1011.6 hPa | 0 mm | - | - | - |
| 1777705241 | 26.67° C | 49% | 1011.6 hPa | 0 mm | - | - | - |
| 1777704641 | 26.11° C | 49% | 1011.6 hPa | 0 mm | - | - | - |
| 1777704041 | 26.67° C | 47% | 1011.8 hPa | 0 mm | - | - | - |
| 1777703441 | 26.67° C | 46% | 1012 hPa | 0 mm | - | - | - |
| 1777702841 | 27.22° C | 46% | 1012.1 hPa | 0 mm | - | - | - |
| 1777702240 | 27.78° C | 45% | 1012.2 hPa | 0 mm | - | - | - |
| 1777701640 | 27.78° C | 38% | 1012.3 hPa | 0 mm | - | - | - |
| 1777701040 | 29.44° C | 41% | 1012.3 hPa | 0 mm | - | - | - |
* Rain latest hour (hover to see other rain measurements)
** Current wind speed in m/s (hover to see current wind gust speed)